Weather History for Kalispell, MT

Change the Weather History Date:

Tuesday, July 9, 2013

  Actual Average Record
Temperature  
Mean Temperature 62 °F 64 °F  
Max Temperature 81 °F 80 °F 96 °F (1985)
Min Temperature 43 °F 47 °F 37 °F (2004)
Degree Days  
Heating Degree Days 3 3  
Month to date heating degree days 7 34  
Since 1 June heating degree days 193 250  
Since 1 July heating degree days 7 34  
Cooling Degree Days 0 2  
Month to date cooling degree days 40 10  
Year to date cooling degree days 59 26  
Since 1 June cooling degree days 59 23  
Growing Degree Days 12 (Base 50)    
Moisture  
Dew Point 49 °F    
Average Humidity 64    
Maximum Humidity 100    
Minimum Humidity 28    
Precipitation  
Precipitation 0.00 in 0.06 in 0.39 in (1943)
Month to date precipitation 0.30 0.56  
Year to date precipitation 9.31 9.73  
Snow  
Snow 0.00 in - - ()
Month to date snowfall 0.0  
Year to date snowfall 10.1  
Since 1 July snowfall 0.0  
Snow Depth 0.00 in    
Sea Level Pressure  
Sea Level Pressure 30.12 in    
Wind  
Wind Speed 2 mph (South)    
Max Wind Speed 12 mph    
Max Gust Speed 17 mph    
Visibility 10 miles    
Events      
T = Trace of Precipitation, MM = Missing Value Source: NWS Daily Summary

Daily Weather History Graph

Daily Weather History Graph

Search for Another Location

Airport:

Trip Planner

Search our weather history database for the weather conditions in past years. The results will help you decide how hot, cold, wet, or windy it might be!

Date:

Astronomy

Jul. 09, 2013 Rise Set
Actual Time 5:46 AM MDT 9:37 PM MDT
Civil Twilight 5:06 AM MDT 10:18 PM MDT
Nautical Twilight 4:10 AM MDT 11:13 PM MDT
Astronomical Twilight 2:44 AM MDT 12:37 AM MDT
Moon 7:26 AM MDT (7/9) 10:03 PM MDT (7/9)
Length of Visible Light 17h 12m
Length of Day
15h 51m
New Moon, 2% of the Moon is Illuminated
Jul 9
New Moon
Jul 15
First Quarter
Jul 22
Full
Jul 29
Last Quarter
Aug 6
New

Hourly Weather History & Observations

Time (MDT) Temp. Windchill Dew Point Humidity Pressure Visibility Wind Dir Wind Speed Gust Speed Precip Events Conditions
12:55 AM 51.1 °F - 48.9 °F 92% 30.10 in 10.0 mi Calm Calm - N/A   Clear
1:55 AM 50.0 °F - 48.9 °F 96% 30.12 in 10.0 mi Calm Calm - N/A   Clear
2:55 AM 48.0 °F - 46.9 °F 96% 30.14 in 10.0 mi Calm Calm - N/A   Clear
3:55 AM 48.0 °F - 46.0 °F 93% 30.15 in 10.0 mi Calm Calm - N/A   Clear
4:55 AM 45.0 °F - 44.1 °F 97% 30.15 in 10.0 mi Calm Calm - N/A   Clear
5:55 AM 46.0 °F 44.8 °F 45.0 °F 96% 30.16 in 10.0 mi WNW 3.5 mph - N/A   Clear
6:55 AM 48.9 °F - 46.9 °F 93% 30.17 in 10.0 mi Calm Calm - N/A   Clear
7:55 AM 55.9 °F - 50.0 °F 80% 30.17 in 10.0 mi Calm Calm - N/A   Clear
8:55 AM 60.1 °F - 51.1 °F 72% 30.20 in 10.0 mi Calm Calm - N/A   Clear
9:55 AM 63.0 °F - 51.1 °F 65% 30.21 in 10.0 mi Variable 3.5 mph - N/A   Clear
10:55 AM 66.0 °F - 50.0 °F 56% 30.20 in 10.0 mi Calm Calm - N/A   Clear
11:55 AM 70.0 °F - 50.0 °F 49% 30.19 in 10.0 mi Variable 3.5 mph - N/A   Clear
12:55 PM 73.0 °F - 48.9 °F 42% 30.17 in 10.0 mi Variable 5.8 mph - N/A   Clear
1:55 PM 73.9 °F - 48.0 °F 40% 30.15 in 10.0 mi Calm Calm - N/A   Clear
2:55 PM 77.0 °F - 48.0 °F 36% 30.14 in 10.0 mi Variable 4.6 mph - N/A   Clear
3:55 PM 78.1 °F - 45.0 °F 31% 30.12 in 10.0 mi ESE 6.9 mph - N/A   Clear
4:55 PM 80.1 °F - 44.1 °F 28% 30.10 in 10.0 mi SSE 8.1 mph - N/A   Clear
5:55 PM 80.1 °F - 45.0 °F 29% 30.08 in 10.0 mi SSE 8.1 mph - N/A   Clear
6:55 PM 80.1 °F - 48.9 °F 34% 30.05 in 10.0 mi South 8.1 mph - N/A   Clear
7:55 PM 80.1 °F - 48.9 °F 34% 30.03 in 10.0 mi South 3.5 mph - N/A   Clear
8:55 PM 73.9 °F - 51.1 °F 45% 30.02 in 10.0 mi SW 3.5 mph - N/A   Clear
9:55 PM 63.0 °F - 55.0 °F 75% 30.04 in 10.0 mi Calm Calm - N/A   Clear
10:55 PM 60.1 °F - 53.1 °F 78% 30.04 in 10.0 mi Calm Calm - N/A   Clear
11:55 PM 57.0 °F - 51.1 °F 81% 30.04 in 10.0 mi Calm Calm - N/A   Clear